Location: ???????
(55.4362°N, 38.1183°E)
Time: 07:40:57
(UTC+00:00)

Lacrosse 4 Rocket - Pass Details

Date: 29 October 2021
Orbit: 537 x 619 km, 68.0° (Epoch: 30 November)

Event Time Altitude Azimuth Distance (km) Brightness Sun altitude
Rises 14:32:28 0° 317° (NW) 2,811 5.3 -5.8°
Reaches altitude 10° 14:34:44 10° 311° (NW) 1,921 4.6 -6.1°
Maximum altitude 14:38:52 46° 239° (WSW) 813 2.8 -6.7°
Drops below altitude 10° 14:43:04 10° 166° (SSE) 1,953 4.1 -7.3°
Sets 14:45:24 0° 161° (SSE) 2,862 4.9 -7.6°
